Year,Month,Day,Hour,Minute,Value (Times are PST for temperature in C)
2016,08,20,00,00,18.90
2016,08,20,00,01,18.90
2016,08,20,00,02,18.80
2016,08,20,00,03,18.80
2016,08,20,00,04,18.80
2016,08,20,00,05,18.80
2016,08,20,00,06,18.80
2016,08,20,00,07,18.80
2016,08,20,00,08,18.90
2016,08,20,00,09,18.90
2016,08,20,00,10,18.80
2016,08,20,00,11,18.80
2016,08,20,00,12,18.80
2016,08,20,00,13,18.90
2016,08,20,00,14,18.90
2016,08,20,00,15,18.80
2016,08,20,00,16,18.80
2016,08,20,00,17,18.80
2016,08,20,00,18,18.70
2016,08,20,00,19,18.70
2016,08,20,00,20,18.70
2016,08,20,00,21,18.70
2016,08,20,00,22,18.70
2016,08,20,00,23,18.80
2016,08,20,00,24,18.80
2016,08,20,00,25,18.80
2016,08,20,00,26,18.80
2016,08,20,00,27,18.80
2016,08,20,00,28,18.80
2016,08,20,00,29,18.80
2016,08,20,00,30,18.80
2016,08,20,00,31,18.80
2016,08,20,00,32,18.80
2016,08,20,00,33,18.70
2016,08,20,00,34,18.70
2016,08,20,00,35,18.70
2016,08,20,00,36,18.70
2016,08,20,00,37,18.70
2016,08,20,00,38,18.70
2016,08,20,00,39,18.70
2016,08,20,00,40,18.70
2016,08,20,00,41,18.70
2016,08,20,00,42,18.70
2016,08,20,00,43,18.70
2016,08,20,00,44,18.70
2016,08,20,00,45,18.70
2016,08,20,00,46,18.70
2016,08,20,00,47,18.80
2016,08,20,00,48,18.80
2016,08,20,00,49,18.80
2016,08,20,00,50,18.80
2016,08,20,00,51,18.90
2016,08,20,00,52,18.90
2016,08,20,00,53,19.00
2016,08,20,00,54,19.10
2016,08,20,00,55,19.20
2016,08,20,00,56,19.20
2016,08,20,00,57,19.20
2016,08,20,00,58,19.20
2016,08,20,00,59,19.10
2016,08,20,01,00,19.10
2016,08,20,01,01,19.10
2016,08,20,01,02,19.10
2016,08,20,01,03,19.00
2016,08,20,01,04,18.90
2016,08,20,01,05,18.80
2016,08,20,01,06,18.80
2016,08,20,01,07,18.80
2016,08,20,01,08,18.90
2016,08,20,01,09,18.90
2016,08,20,01,10,18.90
2016,08,20,01,11,18.90
2016,08,20,01,12,18.90
2016,08,20,01,13,18.90
2016,08,20,01,14,19.00
2016,08,20,01,15,19.10
2016,08,20,01,16,19.20
2016,08,20,01,17,19.20
2016,08,20,01,18,19.30
2016,08,20,01,19,19.30
2016,08,20,01,20,19.30
2016,08,20,01,21,19.30
2016,08,20,01,22,19.30
2016,08,20,01,23,19.30
2016,08,20,01,24,19.30
2016,08,20,01,25,19.40
2016,08,20,01,26,19.40
2016,08,20,01,27,19.40
2016,08,20,01,28,19.40
2016,08,20,01,29,19.50
2016,08,20,01,30,19.60
2016,08,20,01,31,19.60
2016,08,20,01,32,19.60
2016,08,20,01,33,19.60
2016,08,20,01,34,19.50
2016,08,20,01,35,19.60
2016,08,20,01,36,19.60
2016,08,20,01,37,19.50
2016,08,20,01,38,19.50
2016,08,20,01,39,19.50
2016,08,20,01,40,19.50
2016,08,20,01,41,19.50
2016,08,20,01,42,19.50
2016,08,20,01,43,19.50
2016,08,20,01,44,19.60
2016,08,20,01,45,19.50
2016,08,20,01,46,19.50
2016,08,20,01,47,19.50
2016,08,20,01,48,19.50
2016,08,20,01,49,19.40
2016,08,20,01,50,19.40
2016,08,20,01,51,19.30
2016,08,20,01,52,19.30
2016,08,20,01,53,19.20
2016,08,20,01,54,19.20
2016,08,20,01,55,19.20
2016,08,20,01,56,19.10
2016,08,20,01,57,19.10
2016,08,20,01,58,19.00
2016,08,20,01,59,19.00
2016,08,20,02,00,19.00
2016,08,20,02,01,19.00
2016,08,20,02,02,19.00
2016,08,20,02,03,19.00
2016,08,20,02,04,19.00
2016,08,20,02,05,19.10
2016,08,20,02,06,19.10
2016,08,20,02,07,19.10
2016,08,20,02,08,19.10
2016,08,20,02,09,19.10
2016,08,20,02,10,19.10
2016,08,20,02,11,19.10
2016,08,20,02,12,19.10
2016,08,20,02,13,19.10
2016,08,20,02,14,19.10
2016,08,20,02,15,19.10
2016,08,20,02,16,19.00
2016,08,20,02,17,19.00
2016,08,20,02,18,19.00
2016,08,20,02,19,18.90
2016,08,20,02,20,18.90
2016,08,20,02,21,18.90
2016,08,20,02,22,18.90
2016,08,20,02,23,18.80
2016,08,20,02,24,18.80
2016,08,20,02,25,18.80
2016,08,20,02,26,18.80
2016,08,20,02,27,18.80
2016,08,20,02,28,18.90
2016,08,20,02,29,18.90
2016,08,20,02,30,18.90
2016,08,20,02,31,19.00
2016,08,20,02,32,19.10
2016,08,20,02,33,19.10
2016,08,20,02,34,19.10
2016,08,20,02,35,19.00
2016,08,20,02,36,19.10
2016,08,20,02,37,19.00
2016,08,20,02,38,19.00
2016,08,20,02,39,19.00
2016,08,20,02,40,19.00
2016,08,20,02,41,18.90
2016,08,20,02,42,19.00
2016,08,20,02,43,19.00
2016,08,20,02,44,19.00
2016,08,20,02,45,19.00
2016,08,20,02,46,19.00
2016,08,20,02,47,19.00
2016,08,20,02,48,19.00
2016,08,20,02,49,19.00
2016,08,20,02,50,18.90
2016,08,20,02,51,18.90
2016,08,20,02,52,18.90
2016,08,20,02,53,18.80
2016,08,20,02,54,18.80
2016,08,20,02,55,18.80
2016,08,20,02,56,18.80
2016,08,20,02,57,18.70
2016,08,20,02,58,18.70
2016,08,20,02,59,18.60
2016,08,20,03,00,18.60
2016,08,20,03,01,18.50
2016,08,20,03,02,18.40
2016,08,20,03,03,18.40
2016,08,20,03,04,18.30
2016,08,20,03,05,18.30
2016,08,20,03,06,18.30
2016,08,20,03,07,18.20
2016,08,20,03,08,18.20
2016,08,20,03,09,18.20
2016,08,20,03,10,18.10
2016,08,20,03,11,18.10
2016,08,20,03,12,18.10
2016,08,20,03,13,18.00
2016,08,20,03,14,18.00
2016,08,20,03,15,18.00
2016,08,20,03,16,18.00
2016,08,20,03,17,18.00
2016,08,20,03,18,18.00
2016,08,20,03,19,18.00
2016,08,20,03,20,17.90
2016,08,20,03,21,17.90
2016,08,20,03,22,17.80
2016,08,20,03,23,17.80
2016,08,20,03,24,17.80
2016,08,20,03,25,17.80
2016,08,20,03,26,17.70
2016,08,20,03,27,17.70
2016,08,20,03,28,17.70
2016,08,20,03,29,17.70
2016,08,20,03,30,17.70
2016,08,20,03,31,17.70
2016,08,20,03,32,17.70
2016,08,20,03,33,17.70
2016,08,20,03,34,17.70
2016,08,20,03,35,17.70
2016,08,20,03,36,17.70
2016,08,20,03,37,17.70
2016,08,20,03,38,17.70
2016,08,20,03,39,17.80
2016,08,20,03,40,17.80
2016,08,20,03,41,17.80
2016,08,20,03,42,17.80
2016,08,20,03,43,17.80
2016,08,20,03,44,17.80
2016,08,20,03,45,17.80
2016,08,20,03,46,17.80
2016,08,20,03,47,17.80
2016,08,20,03,48,17.80
2016,08,20,03,49,17.80
2016,08,20,03,50,17.80
2016,08,20,03,51,17.80
2016,08,20,03,52,17.80
2016,08,20,03,53,17.80
2016,08,20,03,54,17.80
2016,08,20,03,55,17.80
2016,08,20,03,56,17.80
2016,08,20,03,57,17.70
2016,08,20,03,58,17.70
2016,08,20,03,59,17.70
2016,08,20,04,00,17.70
2016,08,20,04,01,17.70
2016,08,20,04,02,17.70
2016,08,20,04,03,17.70
2016,08,20,04,04,17.70
2016,08,20,04,05,17.70
2016,08,20,04,06,17.70
2016,08,20,04,07,17.70
2016,08,20,04,08,17.60
2016,08,20,04,09,17.60
2016,08,20,04,10,17.60
2016,08,20,04,11,17.60
2016,08,20,04,12,17.60
2016,08,20,04,13,17.60
2016,08,20,04,14,17.60
2016,08,20,04,15,17.60
2016,08,20,04,16,17.60
2016,08,20,04,17,17.50
2016,08,20,04,18,17.50
2016,08,20,04,19,17.50
2016,08,20,04,20,17.40
2016,08,20,04,21,17.40
2016,08,20,04,22,17.40
2016,08,20,04,23,17.40
2016,08,20,04,24,17.40
2016,08,20,04,25,17.40
2016,08,20,04,26,17.40
2016,08,20,04,27,17.30
2016,08,20,04,28,17.30
2016,08,20,04,29,17.30
2016,08,20,04,30,17.20
2016,08,20,04,31,17.20
2016,08,20,04,32,17.20
2016,08,20,04,33,17.20
2016,08,20,04,34,17.30
2016,08,20,04,35,17.30
2016,08,20,04,36,17.30
2016,08,20,04,37,17.30
2016,08,20,04,38,17.30
2016,08,20,04,39,17.30
2016,08,20,04,40,17.30
2016,08,20,04,41,17.30
2016,08,20,04,42,17.30
2016,08,20,04,43,17.30
2016,08,20,04,44,17.30
2016,08,20,04,45,17.30
2016,08,20,04,46,17.40
2016,08,20,04,47,17.40
2016,08,20,04,48,17.30
2016,08,20,04,49,17.30
2016,08,20,04,50,17.30
2016,08,20,04,51,17.30
2016,08,20,04,52,17.40
2016,08,20,04,53,17.40
2016,08,20,04,54,17.40
2016,08,20,04,55,17.40
2016,08,20,04,56,17.40
2016,08,20,04,57,17.40
2016,08,20,04,58,17.40
2016,08,20,04,59,17.40
2016,08,20,05,00,17.40
2016,08,20,05,01,17.40
2016,08,20,05,02,17.50
2016,08,20,05,03,17.50
2016,08,20,05,04,17.50
2016,08,20,05,05,17.50
2016,08,20,05,06,17.50
2016,08,20,05,07,17.50
2016,08,20,05,08,17.50
2016,08,20,05,09,17.50
2016,08,20,05,10,17.50
2016,08,20,05,11,17.50
2016,08,20,05,12,17.50
2016,08,20,05,13,17.50
2016,08,20,05,14,17.60
2016,08,20,05,15,17.60
2016,08,20,05,16,17.60
2016,08,20,05,17,17.60
2016,08,20,05,18,17.60
2016,08,20,05,19,17.60
2016,08,20,05,20,17.60
2016,08,20,05,21,17.60
2016,08,20,05,22,17.70
2016,08,20,05,23,17.70
2016,08,20,05,24,17.70
2016,08,20,05,25,17.70
2016,08,20,05,26,17.70
2016,08,20,05,27,17.70
2016,08,20,05,28,17.70
2016,08,20,05,29,17.60
2016,08,20,05,30,17.60
2016,08,20,05,31,17.60
2016,08,20,05,32,17.60
2016,08,20,05,33,17.60
2016,08,20,05,34,17.60
2016,08,20,05,35,17.60
2016,08,20,05,36,17.60
2016,08,20,05,37,17.60
2016,08,20,05,38,17.50
2016,08,20,05,39,17.50
2016,08,20,05,40,17.50
2016,08,20,05,41,17.40
2016,08,20,05,42,17.40
2016,08,20,05,43,17.40
2016,08,20,05,44,17.30
2016,08,20,05,45,17.30
2016,08,20,05,46,17.30
2016,08,20,05,47,17.20
2016,08,20,05,48,17.20
2016,08,20,05,49,17.20
2016,08,20,05,50,17.10
2016,08,20,05,51,17.10
2016,08,20,05,52,17.10
2016,08,20,05,53,17.10
2016,08,20,05,54,17.10
2016,08,20,05,55,17.10
2016,08,20,05,56,17.10
2016,08,20,05,57,17.10
2016,08,20,05,58,17.10
2016,08,20,05,59,17.10
2016,08,20,06,00,17.10
2016,08,20,06,01,17.10
2016,08,20,06,02,17.10
2016,08,20,06,03,17.00
2016,08,20,06,04,17.00
2016,08,20,06,05,17.00
2016,08,20,06,06,17.00
2016,08,20,06,07,17.00
2016,08,20,06,08,17.00
2016,08,20,06,09,17.10
2016,08,20,06,10,17.10
2016,08,20,06,11,17.10
2016,08,20,06,12,17.10
2016,08,20,06,13,17.10
2016,08,20,06,14,17.10
2016,08,20,06,15,17.10
2016,08,20,06,16,17.10
2016,08,20,06,17,17.00
2016,08,20,06,18,17.00
2016,08,20,06,19,17.10
2016,08,20,06,20,17.10
2016,08,20,06,21,17.00
2016,08,20,06,22,17.00
2016,08,20,06,23,17.10
2016,08,20,06,24,17.10
2016,08,20,06,25,17.10
2016,08,20,06,26,17.10
2016,08,20,06,27,17.10
2016,08,20,06,28,17.10
2016,08,20,06,29,17.10
2016,08,20,06,30,17.10
2016,08,20,06,31,17.10
2016,08,20,06,32,17.10
2016,08,20,06,33,17.10
2016,08,20,06,34,17.10
2016,08,20,06,35,17.10
2016,08,20,06,36,17.10
2016,08,20,06,37,17.10
2016,08,20,06,38,17.10
2016,08,20,06,39,17.10
2016,08,20,06,40,17.10
2016,08,20,06,41,17.10
2016,08,20,06,42,17.00
2016,08,20,06,43,17.00
2016,08,20,06,44,17.00
2016,08,20,06,45,17.00
2016,08,20,06,46,17.10
2016,08,20,06,47,17.10
2016,08,20,06,48,17.10
2016,08,20,06,49,17.10
2016,08,20,06,50,17.10
2016,08,20,06,51,17.10
2016,08,20,06,52,17.10
2016,08,20,06,53,17.10
2016,08,20,06,54,17.00
2016,08,20,06,55,17.00
2016,08,20,06,56,17.00
2016,08,20,06,57,17.00
2016,08,20,06,58,17.00
2016,08,20,06,59,17.00
2016,08,20,07,00,17.00
2016,08,20,07,01,16.90
2016,08,20,07,02,16.90
2016,08,20,07,03,16.90
2016,08,20,07,04,16.90
2016,08,20,07,05,16.90
2016,08,20,07,06,16.90
2016,08,20,07,07,16.90
2016,08,20,07,08,16.90
2016,08,20,07,09,16.90
2016,08,20,07,10,16.90
2016,08,20,07,11,16.90
2016,08,20,07,12,16.90
2016,08,20,07,13,16.90
2016,08,20,07,14,16.90
2016,08,20,07,15,16.90
2016,08,20,07,16,16.90
2016,08,20,07,17,16.90
2016,08,20,07,18,16.90
2016,08,20,07,19,17.00
2016,08,20,07,20,17.00
2016,08,20,07,21,17.10
2016,08,20,07,22,17.10
2016,08,20,07,23,17.20
2016,08,20,07,24,17.20
2016,08,20,07,25,17.30
2016,08,20,07,26,17.30
2016,08,20,07,27,17.30
2016,08,20,07,28,17.40
2016,08,20,07,29,17.40
2016,08,20,07,30,17.40
2016,08,20,07,31,17.40
2016,08,20,07,32,17.40
2016,08,20,07,33,17.50
2016,08,20,07,34,17.50
2016,08,20,07,35,17.50
2016,08,20,07,36,17.50
2016,08,20,07,37,17.50
2016,08,20,07,38,17.60
2016,08,20,07,39,17.60
2016,08,20,07,40,17.60
2016,08,20,07,41,17.60
2016,08,20,07,42,17.60
2016,08,20,07,43,17.70
2016,08,20,07,44,17.70
2016,08,20,07,45,17.70
2016,08,20,07,46,17.70
2016,08,20,07,47,17.70
2016,08,20,07,48,17.70
2016,08,20,07,49,17.70
2016,08,20,07,50,17.70
2016,08,20,07,51,17.70
2016,08,20,07,52,17.70
2016,08,20,07,53,17.80
2016,08,20,07,54,17.80
2016,08,20,07,55,17.80
2016,08,20,07,56,17.80
2016,08,20,07,57,17.90
2016,08,20,07,58,17.90
2016,08,20,07,59,17.90
2016,08,20,08,00,18.00
2016,08,20,08,01,18.00
2016,08,20,08,02,18.00
2016,08,20,08,03,18.00
2016,08,20,08,04,18.00
2016,08,20,08,05,18.10
2016,08,20,08,06,18.10
2016,08,20,08,07,18.10
2016,08,20,08,08,18.20
2016,08,20,08,09,18.20
2016,08,20,08,10,18.30
2016,08,20,08,11,18.30
2016,08,20,08,12,18.30
2016,08,20,08,13,18.40
2016,08,20,08,14,18.40
2016,08,20,08,15,18.40
2016,08,20,08,16,18.40
2016,08,20,08,17,18.50
2016,08,20,08,18,18.50
2016,08,20,08,19,18.60
2016,08,20,08,20,18.60
2016,08,20,08,21,18.70
2016,08,20,08,22,18.70
2016,08,20,08,23,18.70
2016,08,20,08,24,18.80
2016,08,20,08,25,18.80
2016,08,20,08,26,18.80
2016,08,20,08,27,18.80
2016,08,20,08,28,18.90
2016,08,20,08,29,19.00
2016,08,20,08,30,19.10
2016,08,20,08,31,19.20
2016,08,20,08,32,19.20
2016,08,20,08,33,19.30
2016,08,20,08,34,19.40
2016,08,20,08,35,19.40
2016,08,20,08,36,19.40
2016,08,20,08,37,19.40
2016,08,20,08,38,19.50
2016,08,20,08,39,19.50
2016,08,20,08,40,19.60
2016,08,20,08,41,19.70
2016,08,20,08,42,19.70
2016,08,20,08,43,19.80
2016,08,20,08,44,19.90
2016,08,20,08,45,19.90
2016,08,20,08,46,19.90
2016,08,20,08,47,19.90
2016,08,20,08,48,19.90
2016,08,20,08,49,19.90
2016,08,20,08,50,19.90
2016,08,20,08,51,19.90
2016,08,20,08,52,19.90
2016,08,20,08,53,19.90
2016,08,20,08,54,20.00
2016,08,20,08,55,20.00
2016,08,20,08,56,20.10
2016,08,20,08,57,20.10
2016,08,20,08,58,20.20
2016,08,20,08,59,20.30
2016,08,20,09,00,20.40
2016,08,20,09,01,20.50
2016,08,20,09,02,20.50
2016,08,20,09,03,20.60
2016,08,20,09,04,20.60
2016,08,20,09,05,20.70
2016,08,20,09,06,20.70
2016,08,20,09,07,20.70
2016,08,20,09,08,20.70
2016,08,20,09,09,20.70
2016,08,20,09,10,20.70
2016,08,20,09,11,20.70
2016,08,20,09,12,20.70
2016,08,20,09,13,20.70
2016,08,20,09,14,20.70
2016,08,20,09,15,20.70
2016,08,20,09,16,20.60
2016,08,20,09,17,20.60
2016,08,20,09,18,20.60
2016,08,20,09,19,20.60
2016,08,20,09,20,20.60
2016,08,20,09,21,20.70
2016,08,20,09,22,20.70
2016,08,20,09,23,20.70
2016,08,20,09,24,20.70
2016,08,20,09,25,20.60
2016,08,20,09,26,20.60
2016,08,20,09,27,20.60
2016,08,20,09,28,20.60
2016,08,20,09,29,20.60
2016,08,20,09,30,20.60
2016,08,20,09,31,20.70
2016,08,20,09,32,20.80
2016,08,20,09,33,20.90
2016,08,20,09,34,21.00
2016,08,20,09,35,21.00
2016,08,20,09,36,21.00
2016,08,20,09,37,20.90
2016,08,20,09,38,20.90
2016,08,20,09,39,20.80
2016,08,20,09,40,20.80
2016,08,20,09,41,20.70
2016,08,20,09,42,20.70
2016,08,20,09,43,20.80
2016,08,20,09,44,20.80
2016,08,20,09,45,20.80
2016,08,20,09,46,20.80
2016,08,20,09,47,20.80
2016,08,20,09,48,20.80
2016,08,20,09,49,20.80
2016,08,20,09,50,20.80
2016,08,20,09,51,20.90
2016,08,20,09,52,21.00
2016,08,20,09,53,21.00
2016,08,20,09,54,21.10
2016,08,20,09,55,21.20
2016,08,20,09,56,21.30
2016,08,20,09,57,21.40
2016,08,20,09,58,21.60
2016,08,20,09,59,21.70
2016,08,20,10,00,21.80
2016,08,20,10,01,21.80
2016,08,20,10,02,21.80
2016,08,20,10,03,21.80
2016,08,20,10,04,21.80
2016,08,20,10,05,21.80
2016,08,20,10,06,21.80
2016,08,20,10,07,21.80
2016,08,20,10,08,21.80
2016,08,20,10,09,21.90
2016,08,20,10,10,21.90
2016,08,20,10,11,21.90
2016,08,20,10,12,21.90
2016,08,20,10,13,22.00
2016,08,20,10,14,22.00
2016,08,20,10,15,22.10
2016,08,20,10,16,22.10
2016,08,20,10,17,22.10
2016,08,20,10,18,22.20
2016,08,20,10,19,22.20
2016,08,20,10,20,22.30
2016,08,20,10,21,22.30
2016,08,20,10,22,22.30
2016,08,20,10,23,22.40
2016,08,20,10,24,22.40
2016,08,20,10,25,22.30
2016,08,20,10,26,22.30
2016,08,20,10,27,22.40
2016,08,20,10,28,22.40
2016,08,20,10,29,22.50
2016,08,20,10,30,22.50
2016,08,20,10,31,22.60
2016,08,20,10,32,22.70
2016,08,20,10,33,22.80
2016,08,20,10,34,22.80
2016,08,20,10,35,22.90
2016,08,20,10,36,23.00
2016,08,20,10,37,23.00
2016,08,20,10,38,23.00
2016,08,20,10,39,23.00
2016,08,20,10,40,23.00
2016,08,20,10,41,22.90
2016,08,20,10,42,22.90
2016,08,20,10,43,22.80
2016,08,20,10,44,22.80
2016,08,20,10,45,22.90
2016,08,20,10,46,22.90
2016,08,20,10,47,22.90
2016,08,20,10,48,23.00
2016,08,20,10,49,23.00
2016,08,20,10,50,23.00
2016,08,20,10,51,23.10
2016,08,20,10,52,23.10
2016,08,20,10,53,23.20
2016,08,20,10,54,23.20
2016,08,20,10,55,23.30
2016,08,20,10,56,23.30
2016,08,20,10,57,23.40
2016,08,20,10,58,23.40
2016,08,20,10,59,23.40
2016,08,20,11,00,23.40
2016,08,20,11,01,23.40
2016,08,20,11,02,23.40
2016,08,20,11,03,23.40
2016,08,20,11,04,23.50
2016,08,20,11,05,23.40
2016,08,20,11,06,23.40
2016,08,20,11,07,23.40
2016,08,20,11,08,23.50
2016,08,20,11,09,23.50
2016,08,20,11,10,23.60
2016,08,20,11,11,23.60
2016,08,20,11,12,23.50
2016,08,20,11,13,23.50
2016,08,20,11,14,23.50
2016,08,20,11,15,23.60
2016,08,20,11,16,23.50
2016,08,20,11,17,23.50
2016,08,20,11,18,23.50
2016,08,20,11,19,23.60
2016,08,20,11,20,23.60
2016,08,20,11,21,23.70
2016,08,20,11,22,23.70
2016,08,20,11,23,23.70
2016,08,20,11,24,23.80
2016,08,20,11,25,23.80
2016,08,20,11,26,23.90
2016,08,20,11,27,23.90
2016,08,20,11,28,23.90
2016,08,20,11,29,24.00
2016,08,20,11,30,24.00
2016,08,20,11,31,24.00
2016,08,20,11,32,24.10
2016,08,20,11,33,24.10
2016,08,20,11,34,24.10
2016,08,20,11,35,24.20
2016,08,20,11,36,24.20
2016,08,20,11,37,24.20
2016,08,20,11,38,24.20
2016,08,20,11,39,24.20
2016,08,20,11,40,24.20
2016,08,20,11,41,24.20
2016,08,20,11,42,24.30
2016,08,20,11,43,24.30
2016,08,20,11,44,24.30
2016,08,20,11,45,24.30
2016,08,20,11,46,24.30
2016,08,20,11,47,24.40
2016,08,20,11,48,24.40
2016,08,20,11,49,24.50
2016,08,20,11,50,24.50
2016,08,20,11,51,24.60
2016,08,20,11,52,24.70
2016,08,20,11,53,24.80
2016,08,20,11,54,24.80
2016,08,20,11,55,24.90
2016,08,20,11,56,24.90
2016,08,20,11,57,24.90
2016,08,20,11,58,24.90
2016,08,20,11,59,24.90
2016,08,20,12,00,24.80
2016,08,20,12,01,24.80
2016,08,20,12,02,24.80
2016,08,20,12,03,24.80
2016,08,20,12,04,24.70
2016,08,20,12,05,24.70
2016,08,20,12,06,24.80
2016,08,20,12,07,24.80
2016,08,20,12,08,24.80
2016,08,20,12,09,24.70
2016,08,20,12,10,24.80
2016,08,20,12,11,24.80
2016,08,20,12,12,24.80
2016,08,20,12,13,24.90
2016,08,20,12,14,25.00
2016,08,20,12,15,25.10
2016,08,20,12,16,25.10
2016,08,20,12,17,25.10
2016,08,20,12,18,25.20
2016,08,20,12,19,25.20
2016,08,20,12,20,25.20
2016,08,20,12,21,25.20
2016,08,20,12,22,25.20
2016,08,20,12,23,25.30
2016,08,20,12,24,25.40
2016,08,20,12,25,25.50
2016,08,20,12,26,25.60
2016,08,20,12,27,25.70
2016,08,20,12,28,25.70
2016,08,20,12,29,25.70
2016,08,20,12,30,25.60
2016,08,20,12,31,25.50
2016,08,20,12,32,25.40
2016,08,20,12,33,25.40
2016,08,20,12,34,25.40
2016,08,20,12,35,25.50
2016,08,20,12,36,25.50
2016,08,20,12,37,25.60
2016,08,20,12,38,25.60
2016,08,20,12,39,25.60
2016,08,20,12,40,25.60
2016,08,20,12,41,25.50
2016,08,20,12,42,25.50
2016,08,20,12,43,25.40
2016,08,20,12,44,25.40
2016,08,20,12,45,25.40
2016,08,20,12,46,25.40
2016,08,20,12,47,25.40
2016,08,20,12,48,25.40
2016,08,20,12,49,25.50
2016,08,20,12,50,25.50
2016,08,20,12,51,25.50
2016,08,20,12,52,25.40
2016,08,20,12,53,25.30
2016,08,20,12,54,25.30
2016,08,20,12,55,25.30
2016,08,20,12,56,25.30
2016,08,20,12,57,25.30
2016,08,20,12,58,25.40
2016,08,20,12,59,25.40
2016,08,20,13,00,25.50
2016,08,20,13,01,25.60
2016,08,20,13,02,25.70
2016,08,20,13,03,25.70
2016,08,20,13,04,25.80
2016,08,20,13,05,25.90
2016,08,20,13,06,25.90
2016,08,20,13,07,25.90
2016,08,20,13,08,26.00
2016,08,20,13,09,26.00
2016,08,20,13,10,26.10
2016,08,20,13,11,26.10
2016,08,20,13,12,26.20
2016,08,20,13,13,26.20
2016,08,20,13,14,26.30
2016,08,20,13,15,26.30
2016,08,20,13,16,26.40
2016,08,20,13,17,26.50
2016,08,20,13,18,26.50
2016,08,20,13,19,26.60
2016,08,20,13,20,26.60
2016,08,20,13,21,26.70
2016,08,20,13,22,26.60
2016,08,20,13,23,26.60
2016,08,20,13,24,26.60
2016,08,20,13,25,26.60
2016,08,20,13,26,26.60
2016,08,20,13,27,26.60
2016,08,20,13,28,26.70
2016,08,20,13,29,26.70
2016,08,20,13,30,26.70
2016,08,20,13,31,26.70
2016,08,20,13,32,26.70
2016,08,20,13,33,26.70
2016,08,20,13,34,26.80
2016,08,20,13,35,26.80
2016,08,20,13,36,26.80
2016,08,20,13,37,26.80
2016,08,20,13,38,26.80
2016,08,20,13,39,26.80
2016,08,20,13,40,26.80
2016,08,20,13,41,26.80
2016,08,20,13,42,26.80
2016,08,20,13,43,26.80
2016,08,20,13,44,26.90
2016,08,20,13,45,27.00
2016,08,20,13,46,27.00
2016,08,20,13,47,27.10
2016,08,20,13,48,27.10
2016,08,20,13,49,27.10
2016,08,20,13,50,27.10
2016,08,20,13,51,27.10
2016,08,20,13,52,27.10
2016,08,20,13,53,27.10
2016,08,20,13,54,27.10
2016,08,20,13,55,27.10
2016,08,20,13,56,27.00
2016,08,20,13,57,26.90
2016,08,20,13,58,26.90
2016,08,20,13,59,26.90
2016,08,20,14,00,26.90
2016,08,20,14,01,26.90
2016,08,20,14,02,26.90
2016,08,20,14,03,26.90
2016,08,20,14,04,27.00
2016,08,20,14,05,27.00
2016,08,20,14,06,27.00
2016,08,20,14,07,27.00
2016,08,20,14,08,27.10
2016,08,20,14,09,27.00
2016,08,20,14,10,27.00
2016,08,20,14,11,27.00
2016,08,20,14,12,27.10
2016,08,20,14,13,27.10
2016,08,20,14,14,27.10
2016,08,20,14,15,27.10
2016,08,20,14,16,27.10
2016,08,20,14,17,27.10
2016,08,20,14,18,27.10
2016,08,20,14,19,27.20
2016,08,20,14,20,27.20
2016,08,20,14,21,27.30
2016,08,20,14,22,27.30
2016,08,20,14,23,27.40
2016,08,20,14,24,27.50
2016,08,20,14,25,27.60
2016,08,20,14,26,27.60
2016,08,20,14,27,27.60
2016,08,20,14,28,27.70
2016,08,20,14,29,27.70
2016,08,20,14,30,27.70
2016,08,20,14,31,27.70
2016,08,20,14,32,27.60
2016,08,20,14,33,27.60
2016,08,20,14,34,27.50
2016,08,20,14,35,27.50
2016,08,20,14,36,27.60
2016,08,20,14,37,27.60
2016,08,20,14,38,27.70
2016,08,20,14,39,27.80
2016,08,20,14,40,27.90
2016,08,20,14,41,28.00
2016,08,20,14,42,28.00
2016,08,20,14,43,28.00
2016,08,20,14,44,28.00
2016,08,20,14,45,28.10
2016,08,20,14,46,28.10
2016,08,20,14,47,28.10
2016,08,20,14,48,28.10
2016,08,20,14,49,28.10
2016,08,20,14,50,28.00
2016,08,20,14,51,28.00
2016,08,20,14,52,27.90
2016,08,20,14,53,27.90
2016,08,20,14,54,28.00
2016,08,20,14,55,28.00
2016,08,20,14,56,28.00
2016,08,20,14,57,28.00
2016,08,20,14,58,28.10
2016,08,20,14,59,28.10
2016,08,20,15,00,28.20
2016,08,20,15,01,28.30
2016,08,20,15,02,28.30
2016,08,20,15,03,28.30
2016,08,20,15,04,28.30
2016,08,20,15,05,28.40
2016,08,20,15,06,28.40
2016,08,20,15,07,28.40
2016,08,20,15,08,28.50
2016,08,20,15,09,28.50
2016,08,20,15,10,28.40
2016,08,20,15,11,28.40
2016,08,20,15,12,28.40
2016,08,20,15,13,28.40
2016,08,20,15,14,28.50
2016,08,20,15,15,28.50
2016,08,20,15,16,28.50
2016,08,20,15,17,28.50
2016,08,20,15,18,28.60
2016,08,20,15,19,28.60
2016,08,20,15,20,28.60
2016,08,20,15,21,28.60
2016,08,20,15,22,28.60
2016,08,20,15,23,28.60
2016,08,20,15,24,28.60
2016,08,20,15,25,28.60
2016,08,20,15,26,28.60
2016,08,20,15,27,28.50
2016,08,20,15,28,28.50
2016,08,20,15,29,28.40
2016,08,20,15,30,28.40
2016,08,20,15,31,28.40
2016,08,20,15,32,28.50
2016,08,20,15,33,28.50
2016,08,20,15,34,28.50
2016,08,20,15,35,28.60
2016,08,20,15,36,28.60
2016,08,20,15,37,28.70
2016,08,20,15,38,28.80
2016,08,20,15,39,28.90
2016,08,20,15,40,29.00
2016,08,20,15,41,29.10
2016,08,20,15,42,29.20
2016,08,20,15,43,29.30
2016,08,20,15,44,29.30
2016,08,20,15,45,29.30
2016,08,20,15,46,29.40
2016,08,20,15,47,29.40
2016,08,20,15,48,29.50
2016,08,20,15,49,29.60
2016,08,20,15,50,29.60
2016,08,20,15,51,29.60
2016,08,20,15,52,29.60
2016,08,20,15,53,29.50
2016,08,20,15,54,29.50
2016,08,20,15,55,29.40
2016,08,20,15,56,29.40
2016,08,20,15,57,29.40
2016,08,20,15,58,29.30
2016,08,20,15,59,29.40
2016,08,20,16,00,29.40
2016,08,20,16,01,29.40
2016,08,20,16,02,29.40
2016,08,20,16,03,29.40
2016,08,20,16,04,29.40
2016,08,20,16,05,29.40
2016,08,20,16,06,29.40
2016,08,20,16,07,29.40
2016,08,20,16,08,29.40
2016,08,20,16,09,29.40
2016,08,20,16,10,29.40
2016,08,20,16,11,29.40
2016,08,20,16,12,29.50
2016,08,20,16,13,29.50
2016,08,20,16,14,29.50
2016,08,20,16,15,29.50
2016,08,20,16,16,29.60
2016,08,20,16,17,29.60
2016,08,20,16,18,29.70
2016,08,20,16,19,29.70
2016,08,20,16,20,29.70
2016,08,20,16,21,29.70
2016,08,20,16,22,29.70
2016,08,20,16,23,29.70
2016,08,20,16,24,29.70
2016,08,20,16,25,29.70
2016,08,20,16,26,29.70
2016,08,20,16,27,29.70
2016,08,20,16,28,29.70
2016,08,20,16,29,29.70
2016,08,20,16,30,29.60
2016,08,20,16,31,29.50
2016,08,20,16,32,29.50
2016,08,20,16,33,29.50
2016,08,20,16,34,29.50
2016,08,20,16,35,29.60
2016,08,20,16,36,29.60
2016,08,20,16,37,29.60
2016,08,20,16,38,29.50
2016,08,20,16,39,29.40
2016,08,20,16,40,29.40
2016,08,20,16,41,29.40
2016,08,20,16,42,29.40
2016,08,20,16,43,29.40
2016,08,20,16,44,29.50
2016,08,20,16,45,29.50
2016,08,20,16,46,29.50
2016,08,20,16,47,29.60
2016,08,20,16,48,29.60
2016,08,20,16,49,29.60
2016,08,20,16,50,29.60
2016,08,20,16,51,29.60
2016,08,20,16,52,29.70
2016,08,20,16,53,29.70
2016,08,20,16,54,29.60
2016,08,20,16,55,29.60
2016,08,20,16,56,29.50
2016,08,20,16,57,29.50
2016,08,20,16,58,29.50
2016,08,20,16,59,29.50
2016,08,20,17,00,29.50
2016,08,20,17,01,29.40
2016,08,20,17,02,29.40
2016,08,20,17,03,29.30
2016,08,20,17,04,29.20
2016,08,20,17,05,29.20
2016,08,20,17,06,29.20
2016,08,20,17,07,29.30
2016,08,20,17,08,29.30
2016,08,20,17,09,29.30
2016,08,20,17,10,29.30
2016,08,20,17,11,29.30
2016,08,20,17,12,29.40
2016,08,20,17,13,29.40
2016,08,20,17,14,29.30
2016,08,20,17,15,29.20
2016,08,20,17,16,29.00
2016,08,20,17,17,28.80
2016,08,20,17,18,28.80
2016,08,20,17,19,28.80